Theta_e
290 290 291 291 291 292 292 292 292 293 293 293 294 294 295 295 296 296 298 299 300 302 303 303 303 304 305 305 305 306 307 309 309 309 309 309 310 310 311 311 312 312 310 311 311 309 310 309 308 306 304 304 304 304 302 300 299 297 295 292 292 290 288 287 288 289 288 287 286 285 287 286 288 289 287 289 290 289 289 290 289 289 287 289 291
289 289 290 290 290 291 291 291 292 291 291 292 292 293 293 294 294 295 296 297 297 298 300 301 301 300 301 300 301 303 304 305 306 307 307 308 307 308 309 310 310 310 309 308 308 307 306 305 306 306 305 305 305 304 301 299 297 296 294 292 290 291 290 288 290 290 287 285 285 285 285 286 286 287 287 288 288 288 289 290 290 289 289 288 287
288 288 288 288 289 289 290 290 290 291 291 291 291 292 292 292 293 294 294 295 296 297 298 298 298 300 300 299 300 299 300 300 301 300 303 304 304 304 305 307 307 307 307 307 308 306 305 304 302 302 302 302 302 301 300 298 297 296 294 296 292 289 289 288 289 290 287 284 282 283 282 284 286 287 287 288 288 287 288 289 290 289 289 288 288
286 286 287 287 288 288 288 289 289 290 290 290 290 291 291 291 292 292 293 293 294 295 296 297 297 297 297 297 298 298 297 298 299 301 301 302 302 301 301 300 302 303 302 303 304 303 303 303 301 301 301 301 302 301 299 299 297 295 294 294 295 292 290 290 290 290 286 287 284 285 281 281 280 283 286 286 287 288 288 289 288 289 289 288 287
285 286 286 286 286 287 287 288 288 288 288 289 289 290 291 290 291 291 292 292 292 293 294 296 297 296 297 297 297 297 297 296 295 295 295 297 299 300 300 299 300 300 299 299 299 298 298 300 300 300 300 300 300 300 299 299 298 297 296 295 293 295 293 290 291 291 289 290 288 281 281 282 281 279 281 283 283 286 287 288 289 289 288 288 287
285 285 285 285 286 286 286 287 287 287 287 288 289 289 290 290 290 291 291 291 291 292 293 294 294 294 293 293 292 292 291 292 291 291 292 292 293 294 295 296 297 299 298 298 297 297 297 295 295 296 297 299 299 300 299 299 298 296 296 295 294 294 295 292 290 291 292 290 287 285 285 282 282 280 283 282 281 283 285 286 287 288 287 288 287
285 285 285 285 285 285 286 286 286 286 286 287 288 288 289 289 289 290 290 290 291 291 291 292 291 291 291 291 290 290 289 290 290 291 291 291 292 292 292 293 293 293 295 296 296 296 296 295 294 294 294 295 296 298 297 297 298 297 296 295 295 295 292 291 291 291 291 291 290 288 286 284 282 283 283 281 281 282 283 285 286 285 285 286 287
284 285 285 285 285 285 284 285 285 286 286 287 287 287 287 288 288 288 289 289 289 290 290 291 290 290 289 289 290 289 289 288 289 290 290 291 291 290 291 291 291 292 292 292 292 293 293 295 295 294 293 291 293 294 295 295 296 297 296 296 295 294 293 292 292 291 290 291 292 291 289 286 283 284 281 284 283 281 281 282 282 285 285 286 287
284 284 284 284 284 284 285 284 285 285 286 286 286 286 287 287 288 288 288 288 288 288 289 289 290 289 288 288 288 288 289 288 289 290 289 289 289 289 289 290 290 290 290 291 291 291 291 292 293 294 294 292 290 291 291 292 293 294 294 295 294 294 294 293 292 292 291 291 290 290 290 289 287 286 284 283 283 281 282 281 282 283 283 285 286
284 284 284 284 284 284 284 284 284 285 285 286 285 286 286 287 287 287 286 287 287 287 287 287 288 288 287 287 287 287 287 287 288 288 288 288 288 288 288 288 289 289 289 289 290 290 290 290 291 291 292 292 291 290 289 289 290 291 293 294 294 294 294 293 292 293 292 292 292 292 289 289 287 287 284 284 284 283 285 283 281 282 283 285 287
283 283 284 284 283 284 284 284 284 284 284 285 285 285 285 285 285 285 286 286 286 286 286 286 286 287 286 286 286 285 286 286 285 285 286 286 286 287 287 287 288 288 288 288 289 289 289 289 289 290 291 291 292 292 292 291 290 289 289 289 291 293 293 293 293 292 292 291 291 291 291 290 289 288 287 286 286 285 283 283 281 282 284 284 284
283 283 283 283 283 284 283 283 283 283 284 284 284 284 285 284 285 284 285 285 286 286 285 285 285 285 285 285 285 285 285 285 284 284 284 284 284 285 286 286 286 287 287 287 287 288 288 288 288 289 289 290 290 291 291 291 290 289 288 288 288 289 291 291 292 292 292 291 291 291 291 291 291 290 289 289 288 287 286 286 285 280 282 283 283
282 282 282 282 282 282 282 282 283 283 283 283 283 283 284 284 284 284 284 284 285 285 285 284 284 284 284 284 285 285 284 284 284 283 284 284 284 283 283 284 284 284 285 285 286 287 287 287 287 287 288 288 289 289 290 290 290 290 290 289 287 287 288 288 288 290 291 291 291 291 291 291 290 291 290 289 289 289 287 286 285 280 285 281 281
281 281 281 281 281 281 282 282 282 282 282 282 282 283 282 282 283 283 283 284 284 284 284 283 283 283 283 283 284 284 283 283 283 283 283 283 283 283 283 283 283 283 283 284 285 286 286 286 286 286 287 287 287 288 288 288 289 289 289 288 288 288 286 286 286 286 287 288 289 289 289 289 290 290 290 289 289 288 287 287 287 284 281 283 280
281 280 281 281 281 281 281 281 281 281 281 282 282 282 282 282 282 282 282 282 283 283 283 282 282 282 282 282 283 283 283 282 282 283 283 282 283 282 282 283 283 284 284 284 284 284 285 285 285 285 286 286 286 286 287 287 287 287 287 287 287 287 286 285 285 285 286 286 286 286 286 287 287 287 288 289 290 289 289 288 287 285 285 282 282
280 280 281 281 281 281 281 281 281 280 280 281 281 281 281 281 280 280 281 281 281 281 281 281 281 281 280 280 281 282 282 282 281 282 282 282 282 282 282 282 283 284 284 284 284 284 284 284 284 284 285 285 284 285 285 285 285 285 286 286 286 288 286 286 286 284 284 284 285 285 284 285 285 285 285 287 288 288 289 289 288 287 285 284 283
280 281 280 281 281 281 282 282 283 283 283 283 283 282 281 281 280 280 280 280 280 280 280 280 280 280 280 279 280 280 280 280 280 279 280 280 280 280 281 281 281 282 283 284 284 284 284 284 284 284 284 284 284 284 283 284 284 284 284 285 285 286 285 285 286 285 285 284 284 284 284 285 285 285 284 284 284 285 286 287 288 288 288 285 284
281 281 281 281 282 281 282 283 283 283 284 284 284 283 282 281 280 280 280 281 281 280 281 281 281 281 281 280 279 279 279 279 280 279 280 279 279 280 279 280 280 280 281 282 282 282 283 283 282 283 283 283 283 283 283 284 284 283 283 284 284 284 284 285 285 285 285 285 285 284 284 284 284 284 284 284 283 284 284 284 285 286 287 286 285
281 281 281 282 282 283 283 283 283 283 283 283 284 283 283 282 281 280 281 281 281 282 281 282 282 283 283 282 281 282 282 281 281 280 279 280 280 279 279 279 280 280 280 280 280 280 280 280 281 281 281 281 282 282 283 283 283 283 283 284 284 284 284 284 285 285 285 285 285 284 285 284 284 284 284 283 283 283 284 283 283 284 284 285 285
281 282 282 282 282 282 282 282 283 284 284 284 283 282 282 282 282 283 282 282 282 283 282 282 283 283 282 282 282 282 282 281 280 280 280 280 280 280 280 280 280 281 280 280 280 280 280 279 280 280 280 280 280 280 281 281 282 282 282 283 283 284 283 283 283 284 285 285 284 284 284 284 285 284 284 284 284 283 283 283 283 283 283 283 284
280 280 280 280 280 280 281 280 281 282 281 282 283 284 284 284 283 282 281 280 279 279 278 279 280 281 280 280 280 279 279 279 278 279 279 279 280 280 280 280 280 280 280 280 280 280 280 280 280 280 280 280 280 281 281 280 279 280 281 281 282 282 282 283 283 284 284 284 284 284 285 285 285 284 284 284 284 283 283 283 283 283 283 283 282
280 280 280 281 281 282 283 283 283 282 282 283 282 281 281 282 282 280 279 279 279 280 279 278 279 279 278 278 278 278 279 278 277 277 278 278 279 279 279 279 279 280 280 280 280 280 280 280 279 280 279 279 280 280 280 279 279 279 279 281 282 281 281 281 282 282 282 284 284 283 283 284 284 284 284 284 284 284 283 282 282 282 283 283 283
283 284 283 284 284 284 283 283 283 284 284 283 283 283 283 281 281 279 279 280 279 280 279 278 278 278 277 277 276 277 277 277 277 278 277 278 278 278 279 279 279 279 279 279 280 280 280 280 280 280 280 279 279 279 279 278 278 278 279 279 280 280 280 280 281 281 281 282 282 283 283 283 284 283 283 283 283 283 283 283 283 283 282 283 283
284 283 283 282 282 282 281 281 281 281 281 282 282 281 280 280 279 279 278 279 279 278 279 279 279 278 276 276 276 276 276 276 276 277 276 277 277 277 278 278 278 278 278 279 278 279 279 279 279 279 279 279 279 279 279 279 278 278 278 278 279 279 279 280 280 281 281 281 281 281 282 282 282 282 283 283 282 282 282 282 283 283 282 283 283
281 281 281 279 279 278 279 279 279 279 279 279 279 280 279 280 279 279 279 278 277 277 277 277 277 277 276 276 275 275 275 276 276 276 276 276 276 277 277 277 277 278 278 278 278 277 277 278 278 278 278 278 279 279 279 279 279 278 278 278 278 278 278 278 279 280 281 281 281 281 281 281 281 281 282 282 282 282 282 282 282 282 282 282 283
280 279 278 278 278 278 278 278 278 278 279 278 278 279 279 279 279 278 278 278 278 277 276 276 276 276 276 275 276 276 276 276 276 276 276 276 277 276 276 276 276 277 277 277 277 277 277 277 278 278 278 278 278 278 278 278 278 278 278 278 278 278 278 278 278 279 279 280 281 281 280 281 280 280 281 281 282 282 282 282 282 282 282 282 281
279 278 278 277 277 278 278 278 278 278 278 278 279 278 278 279 279 278 278 278 278 277 277 276 276 275 276 276 276 276 276 276 276 277 277 277 277 276 276 276 276 276 276 276 276 276 277 277 277 277 277 277 277 278 278 277 277 277 277 277 277 278 278 278 278 278 279 279 280 280 280 280 280 281 281 281 281 281 282 282 282 282 282 282 281
277 277 277 278 279 278 278 278 277 278 278 278 278 278 278 278 278 278 277 278 278 277 276 276 276 276 276 276 276 276 276 277 277 277 277 277 277 277 277 277 277 277 276 276 276 276 276 276 276 276 277 277 277 277 277 277 277 276 276 276 277 277 277 277 278 278 279 279 279 280 280 280 280 281 281 281 281 281 281 281 282 282 282 282 281
277 278 278 278 278 278 278 278 278 278 277 278 278 277 277 277 277 277 277 277 277 277 276 275 275 275 275 275 276 276 276 276 276 276 276 276 276 276 277 276 276 276 277 276 276 276 276 276 276 276 276 276 276 276 276 276 276 276 277 276 277 277 277 277 278 278 279 279 280 280 280 280 281 282 284 284 284 285 282 281 281 282 281 281 281
278 278 278 278 278 278 278 278 278 277 277 277 276 276 277 277 277 276 277 276 275 275 275 275 275 275 275 275 275 275 275 275 275 275 275 275 275 275 275 274 274 274 274 275 274 275 275 275 275 275 276 276 276 276 278 280 281 279 278 278 278 277 277 277 277 277 278 278 279 279 280 282 283 283 284 285 286 286 287 285 283 282 281 281 281
278 278 278 278 277 277 277 276 276 276 276 276 277 276 276 276 276 275 275 275 274 274 274 274 274 274 274 274 274 274 274 274 274 274 273 273 273 273 272 272 272 272 272 273 273 273 274 274 274 274 274 275 275 276 279 280 281 282 279 278 277 277 277 277 277 276 276 277 278 279 279 280 281 281 281 283 284 285 286 287 287 287 286 283 281
279 278 277 276 276 276 276 276 275 275 276 276 276 276 275 275 275 275 274 274 274 274 274 273 273 273 273 273 273 273 272 272 272 271 271 271 270 270 270 270 270 270 271 272 271 272 272 272 272 272 272 273 273 276 279 279 280 280 280 277 277 277 277 276 276 276 276 276 277 277 278 279 279 279 280 280 282 283 285 285 286 287 287 288 288
276 276 276 277 277 276 276 275 275 276 276 276 276 275 275 274 274 274 274 273 273 273 273 272 272 272 272 272 271 270 270 269 269 269 269 268 268 268 267 268 268 269 269 269 269 269 269 269 270 269 270 270 271 274 276 277 278 278 279 278 276 276 276 276 276 276 276 275 275 276 276 277 278 281 280 280 280 280 283 284 285 286 286 287 288
275 277 277 277 276 275 275 276 276 276 275 275 274 274 274 273 273 273 273 272 272 272 271 271 270 270 270 270 269 268 267 267 267 267 266 266 266 266 266 267 267 267 266 266 266 266 266 267 267 267 267 268 268 271 274 275 276 277 277 277 274 274 274 274 274 274 274 274 274 274 274 275 276 277 277 278 278 278 279 279 280 280 281 282 285
277 276 276 276 276 275 275 275 275 275 274 273 273 273 272 272 272 271 271 270 269 269 268 269 268 268 268 267 267 266 266 265 265 265 264 264 264 264 265 265 265 264 264 264 264 264 264 265 265 265 265 265 265 270 272 273 274 275 276 276 273 273 273 273 274 274 274 274 274 274 274 273 274 274 276 277 277 278 279 279 279 279 279 280 281
277 277 277 276 275 276 275 275 275 273 273 272 272 272 271 270 270 270 268 268 268 266 267 267 266 266 266 267 265 264 264 263 263 263 263 263 263 263 263 263 263 263 263 263 263 263 263 263 263 263 263 262 263 269 271 272 273 274 275 271 270 269 269 269 270 271 271 272 273 273 272 272 272 273 276 278 278 277 276 276 277 278 279 280 280
277 277 277 277 276 276 275 274 273 272 271 271 271 270 268 268 267 266 266 266 266 265 266 266 265 265 264 264 264 263 262 262 262 261 261 261 262 262 262 262 261 261 261 261 261 261 262 262 262 262 261 262 262 266 270 271 272 273 272 268 268 268 268 268 268 269 269 270 270 271 271 271 271 271 274 277 278 278 275 275 275 276 277 278 279
277 275 275 275 275 275 274 272 271 270 270 270 268 267 267 266 265 266 264 265 264 264 265 263 263 262 263 263 262 261 261 261 260 260 260 261 261 261 261 261 260 260 260 260 260 260 261 261 261 261 261 261 261 265 269 270 271 272 271 268 268 267 267 268 268 269 269 270 270 273 273 272 272 272 276 277 278 276 274 275 275 276 276 277 278
276 276 275 275 274 274 272 271 270 269 269 268 266 265 265 265 265 265 264 263 263 264 263 262 263 263 263 262 261 261 261 260 260 260 260 260 260 260 260 261 260 260 260 260 260 260 260 260 260 260 263 262 261 263 268 269 270 271 269 268 268 267 267 267 267 267 268 268 269 270 272 272 272 272 276 277 277 276 273 273 274 274 273 274 277
275 275 276 275 273 271 270 269 268 268 267 266 264 264 263 264 264 264 263 261 263 262 263 262 262 262 262 260 260 260 260 259 259 259 259 259 260 259 259 259 259 259 259 259 259 259 258 259 260 260 260 261 261 261 263 269 270 271 272 268 268 267 266 266 267 267 267 267 268 268 270 273 275 275 276 277 277 278 275 274 273 273 273 273 276
275 275 276 273 272 272 270 268 268 267 265 264 263 262 262 263 263 262 260 262 262 262 262 261 262 260 260 259 259 259 259 259 259 259 259 259 259 259 259 258 258 258 258 258 258 258 258 259 259 260 260 260 261 261 262 268 270 271 271 271 267 267 267 267 266 267 267 267 267 268 269 272 274 275 275 276 276 276 276 274 274 274 274 276 278
274 275 273 271 270 268 267 266 266 266 264 263 262 261 261 261 261 260 260 262 262 261 261 259 259 258 259 258 258 258 258 258 258 258 258 258 259 258 258 258 258 258 257 257 258 258 258 258 259 260 260 260 262 264 262 266 269 270 271 272 268 267 268 267 267 267 268 268 268 268 268 270 274 274 275 275 276 276 276 273 273 277 279 280 277
272 271 270 270 268 267 266 265 265 264 264 263 259 259 259 260 259 260 261 261 261 260 260 259 258 258 257 257 257 257 257 258 258 258 257 257 258 257 257 258 257 257 257 257 257 257 257 257 258 259 259 260 260 261 266 265 269 270 271 272 272 271 273 270 268 267 267 267 268 268 268 272 274 274 275 276 276 277 276 274 277 278 278 279 279
273 272 270 268 268 266 265 264 264 262 262 262 259 258 258 258 259 261 260 260 258 258 257 256 256 256 256 256 256 256 257 257 257 257 257 257 257 257 257 257 257 257 256 256 257 257 257 257 257 257 258 259 260 261 264 267 267 270 271 272 273 274 274 271 270 269 269 268 268 267 268 273 274 275 275 276 276 276 274 277 277 278 278 277 275
271 270 268 267 267 265 264 263 263 261 260 259 258 257 257 256 259 259 259 258 257 256 255 255 255 255 255 256 256 256 256 256 256 256 256 257 257 256 256 257 257 256 256 256 256 256 256 256 257 257 258 259 260 261 261 264 269 270 271 272 273 274 274 274 270 269 269 268 271 274 275 275 275 276 276 276 275 274 275 275 276 276 276 274 274
268 266 266 265 263 262 261 261 261 260 260 258 258 257 255 257 259 259 258 257 255 254 254 255 254 255 255 255 255 256 256 256 256 257 257 257 256 256 256 256 256 256 256 256 256 256 256 257 257 258 259 261 262 262 262 262 265 267 268 270 272 272 273 273 273 271 274 275 275 275 275 275 274 273 270 269 269 269 273 275 276 276 273 273 274
268 267 264 262 261 261 260 259 259 259 258 258 256 257 257 257 256 258 258 255 253 253 255 255 255 255 255 255 255 256 256 257 256 257 257 257 257 256 256 256 256 256 256 256 257 257 258 258 259 260 261 262 263 263 264 264 264 264 264 265 267 267 270 271 269 268 270 268 269 270 270 272 273 275 275 275 274 274 272 272 272 272 272 273 273
268 265 263 262 261 261 260 259 259 259 259 257 256 256 256 256 256 257 254 253 253 253 254 254 254 254 255 255 255 257 257 256 256 256 256 256 256 256 255 256 256 257 257 257 258 259 259 260 261 262 263 264 264 265 265 266 266 266 267 267 267 266 265 265 265 265 265 266 266 269 270 268 268 268 268 268 269 269 270 270 271 271 272 273 274
265 263 262 263 261 260 259 258 258 259 257 256 255 255 255 256 257 255 253 252 253 254 254 254 254 254 254 256 256 256 255 256 256 256 256 256 256 256 257 258 260 260 260 260 260 262 264 265 265 265 264 264 265 265 266 270 270 273 271 270 270 270 269 267 267 270 267 266 266 266 266 266 266 266 267 267 268 269 269 269 270 270 271 272 273
264 262 261 260 259 258 258 257 258 258 256 255 254 254 254 257 254 253 253 252 253 253 252 253 254 254 254 255 255 255 255 256 255 255 256 256 260 265 264 262 262 265 269 270 270 266 267 267 267 267 267 266 266 267 272 274 273 274 275 275 275 275 275 274 275 277 275 271 270 269 269 269 269 268 268 268 268 269 269 269 270 272 272 272 273
262 261 259 259 258 258 256 256 257 256 255 255 255 254 254 254 255 255 254 253 252 253 253 254 254 254 255 256 255 255 255 255 256 256 256 256 256 258 264 266 267 267 269 270 271 271 272 272 269 267 269 272 273 273 274 274 274 273 273 275 275 275 275 276 276 273 271 270 269 269 269 269 269 269 269 269 269 269 269 269 269 270 271 272 272
Wind_Speed
4 6 7 8 9 9 9 10 10 12 13 13 14 15 14 12 13 13 10 10 9 8 8 7 7 6 7 7 6 6 6 7 8 7 8 7 7 7 7 6 4 5 5 5 5 3 1 1 3 4 3 4 6 8 9 10 8 7 6 4 6 5 3 2 3 5 4 0 2 3 5 3 3 2 4 5 6 5 3 5 5 4 4 4 6
6 8 10 9 10 11 10 10 13 15 12 13 14 12 12 14 14 12 11 11 11 8 6 7 4 3 5 4 4 6 8 8 7 7 7 7 9 9 8 7 6 7 6 4 4 4 3 3 2 1 1 5 7 4 3 2 3 4 4 3 2 6 6 5 5 6 0 5 2 3 4 6 4 4 5 6 6 4 4 5 6 6 6 6 4
7 8 8 10 11 11 10 11 11 10 10 12 12 14 15 13 12 12 12 11 10 10 9 6 5 6 6 5 5 4 4 4 4 3 5 7 8 8 9 9 9 7 6 6 5 4 3 2 2 2 1 3 2 1 2 5 5 6 6 7 4 1 2 2 5 7 6 3 2 1 4 2 4 5 6 7 4 5 5 6 7 6 7 5 5
10 9 10 10 10 10 11 12 11 10 11 13 13 13 11 12 12 12 12 12 11 10 8 5 5 5 6 7 8 9 5 7 9 10 11 10 9 7 7 7 7 8 9 8 6 6 4 3 2 1 0 0 1 2 1 3 2 3 5 6 4 4 3 5 6 8 5 7 3 7 3 1 6 7 9 6 6 8 6 8 4 7 6 5 4
7 8 9 10 12 12 11 10 9 11 11 12 11 11 9 11 11 10 10 11 10 12 11 8 9 9 7 9 9 10 11 11 11 11 10 10 10 11 10 8 7 7 6 7 7 6 5 4 3 1 0 0 1 2 2 4 3 3 3 4 5 7 6 4 4 6 7 7 6 3 1 2 6 4 1 6 2 5 8 7 6 6 7 7 6
5 7 8 8 8 8 10 12 12 10 11 9 8 9 10 10 11 11 10 11 11 12 11 10 10 10 11 11 10 8 9 10 10 8 9 9 7 7 12 11 12 10 8 7 6 6 6 4 4 3 2 1 1 2 2 2 3 4 5 5 6 5 6 5 5 4 8 8 5 3 4 4 1 2 1 7 2 4 4 4 6 7 5 6 6
5 6 7 9 9 9 11 11 10 11 9 7 8 9 11 10 10 11 11 10 11 11 12 9 10 9 10 9 8 8 7 6 4 5 7 7 7 11 9 11 11 12 12 11 11 10 8 7 5 3 2 1 1 1 3 4 4 4 3 4 6 6 4 6 7 6 3 7 7 8 5 2 2 1 5 1 6 1 3 6 7 4 4 5 6
4 6 7 7 8 8 10 9 9 8 6 7 9 9 12 11 12 12 11 12 11 10 12 11 9 9 10 10 9 9 8 6 7 7 7 7 10 10 9 9 10 10 11 11 12 11 11 11 9 6 5 3 1 1 3 3 3 3 2 3 3 4 5 7 7 6 7 5 8 12 10 6 3 1 3 3 3 6 5 2 3 5 5 6 7
4 6 6 7 7 8 7 8 6 7 8 9 8 8 8 9 11 12 14 12 11 12 11 11 10 10 9 9 10 8 7 7 6 8 9 8 11 10 10 9 10 10 10 10 11 11 10 10 10 10 9 7 3 3 3 3 3 3 3 3 4 5 5 6 6 6 6 8 5 6 8 10 8 7 3 2 4 4 7 4 5 2 3 6 8
4 5 5 6 6 6 5 5 8 8 7 6 6 7 9 10 12 14 14 11 10 12 11 12 11 10 12 11 12 10 8 8 9 10 9 8 10 10 8 9 9 9 10 10 11 11 10 10 10 10 9 9 7 4 3 4 4 3 3 4 3 4 4 5 7 6 6 6 7 5 6 4 7 7 6 6 5 6 13 7 5 7 8 8 10
3 4 4 4 4 4 4 7 6 6 5 6 9 9 10 11 11 15 12 10 11 11 11 12 11 11 11 10 11 11 10 10 11 11 10 11 10 10 9 8 8 9 9 9 10 11 11 9 9 9 8 9 9 9 8 6 5 3 4 4 4 4 5 5 6 6 7 7 7 6 8 8 9 8 8 7 9 9 6 8 5 7 9 8 6
2 4 4 4 5 5 4 7 6 5 7 9 8 9 10 9 10 13 13 11 10 10 11 11 10 11 10 10 11 10 10 10 11 10 9 9 9 9 7 8 9 8 10 10 11 11 10 10 10 9 9 9 9 8 8 7 7 4 4 3 4 4 4 5 5 6 6 7 8 7 8 7 8 8 6 6 8 9 8 13 8 3 5 7 6
3 3 4 3 4 4 5 4 5 9 9 8 10 9 9 10 10 13 11 9 9 9 10 10 11 11 10 10 9 9 11 11 10 10 8 9 8 9 9 9 8 10 9 9 11 12 10 10 10 9 9 9 9 8 8 8 7 7 6 5 4 4 5 5 5 6 7 7 7 7 7 7 9 7 6 7 6 6 7 11 7 3 11 5 4
2 3 2 2 3 3 4 5 7 6 6 7 7 8 7 8 8 11 9 8 7 8 9 10 10 9 8 9 8 8 9 9 8 8 8 7 7 8 8 8 7 7 8 8 7 8 8 8 8 9 8 9 9 9 9 8 7 7 6 6 6 6 4 4 5 6 6 7 6 7 7 7 7 6 7 6 7 6 9 10 10 6 4 8 3
2 3 3 3 4 4 5 5 5 5 5 7 6 7 6 8 8 8 8 7 7 7 7 8 8 7 7 7 8 7 7 7 7 6 6 7 7 7 7 7 7 7 7 7 7 8 7 8 8 8 8 8 9 9 9 9 9 8 7 6 5 5 5 4 5 5 7 7 6 7 8 7 7 6 6 7 6 9 9 9 7 12 11 8 7
2 3 4 4 4 4 4 4 4 4 5 5 5 5 6 6 6 5 6 5 5 5 5 4 4 4 5 7 6 6 5 6 6 6 6 5 5 5 6 6 6 6 7 8 9 8 9 9 8 7 7 8 7 7 7 7 8 8 8 7 8 5 5 6 6 4 6 7 7 7 6 8 7 7 7 7 7 7 8 7 7 10 11 14 8
3 4 4 4 3 3 3 4 3 4 5 6 6 6 7 6 6 6 4 3 4 4 4 4 4 4 5 5 5 5 6 5 5 4 4 3 3 3 3 4 4 4 5 5 6 7 7 8 9 9 9 8 7 7 7 6 6 6 7 8 8 7 6 7 6 6 6 6 6 6 7 7 7 6 6 6 7 7 6 7 7 10 10 11 12
3 3 2 3 2 3 3 3 4 4 4 6 6 4 4 3 4 4 4 6 5 5 5 5 5 5 5 5 4 4 4 4 4 3 2 3 4 3 3 5 4 4 3 4 4 6 5 6 6 7 7 8 9 8 7 8 7 6 5 6 6 6 6 6 6 6 7 6 6 6 6 7 6 6 7 6 6 7 7 7 7 8 8 13 13
3 4 3 3 3 3 3 3 2 2 3 3 3 3 4 4 4 4 4 4 4 5 5 5 6 5 5 5 6 7 7 6 6 5 4 5 5 4 4 4 4 4 5 5 5 5 6 6 5 6 6 6 6 7 8 8 8 8 8 7 6 5 6 7 7 6 6 6 6 7 6 7 6 7 7 6 6 6 7 7 7 6 8 11 12
4 4 3 3 3 2 2 2 2 2 2 1 2 2 3 1 2 2 3 4 4 5 5 5 4 5 5 5 5 4 4 4 5 6 7 7 6 7 8 8 7 7 6 5 6 6 7 7 6 6 7 6 6 6 5 6 7 7 8 8 8 6 6 6 7 6 5 6 6 7 7 7 7 6 7 6 7 6 6 7 7 7 9 8 8
4 4 4 4 3 2 2 2 1 1 0 0 2 4 3 1 2 2 3 2 4 3 4 4 4 5 5 5 4 4 5 4 5 5 5 5 6 6 6 6 7 9 8 9 8 9 8 8 9 9 9 9 9 9 7 6 6 6 7 7 8 8 8 7 6 8 5 5 6 8 8 7 6 7 7 7 7 6 6 7 6 7 8 7 8
5 5 5 4 4 4 3 2 0 1 2 2 2 3 3 4 4 3 2 1 2 2 2 2 2 2 2 2 3 1 1 2 2 4 4 5 6 6 6 5 6 7 7 8 9 9 8 8 7 8 7 7 8 8 9 7 8 8 8 6 6 7 8 9 7 8 8 6 6 7 8 8 7 8 8 8 7 7 7 7 7 7 8 9 7
7 6 5 5 5 4 4 3 3 3 3 3 3 4 4 4 4 3 3 2 2 1 0 0 1 1 1 1 2 2 3 4 4 5 5 6 6 6 5 6 6 7 6 6 7 8 9 10 11 11 11 10 10 9 8 7 8 9 10 9 7 7 8 8 9 9 8 7 8 7 8 7 6 8 8 7 7 8 7 8 9 7 9 9 7
5 5 5 4 4 2 2 3 3 3 4 4 4 3 3 3 3 4 3 3 3 3 1 1 0 0 0 1 2 3 3 3 4 4 5 5 6 6 5 5 6 6 7 7 5 7 7 8 9 10 10 11 12 11 11 9 9 9 10 11 10 9 9 9 10 10 9 8 8 9 8 6 5 8 9 8 7 7 8 8 9 8 8 9 8
6 5 5 4 2 3 4 4 5 5 4 4 4 4 3 4 2 4 4 4 4 3 2 2 2 1 1 1 2 2 2 3 4 4 4 4 4 5 5 5 6 7 7 7 7 5 6 6 8 8 9 9 10 11 12 13 12 8 8 9 10 10 10 10 10 10 10 10 10 9 10 7 6 7 8 8 7 8 8 8 9 9 8 8 7
6 5 3 5 5 5 5 5 5 5 5 4 4 4 4 4 4 4 4 3 4 3 4 3 3 2 2 2 3 2 4 4 5 5 5 5 5 5 6 5 5 7 7 6 7 8 7 10 10 10 9 10 9 9 10 11 12 12 13 12 11 10 10 10 10 10 10 9 10 11 10 9 7 8 9 9 8 9 9 9 10 10 9 8 8
7 6 5 4 5 7 7 6 6 5 5 5 5 5 5 5 5 4 4 4 4 4 4 4 2 2 1 2 4 4 4 5 5 6 6 5 6 6 6 7 6 5 7 8 7 8 8 8 10 10 10 11 11 11 10 10 10 10 10 12 13 14 13 11 10 11 11 10 11 11 11 10 10 9 10 10 9 9 9 10 10 10 9 8 9
4 5 6 8 8 6 6 6 5 6 6 5 4 5 5 6 7 4 3 2 2 2 2 1 0 2 4 5 5 5 6 7 7 7 8 8 8 8 9 8 7 9 9 9 10 11 11 9 10 10 10 9 9 10 10 9 8 8 9 10 11 12 13 14 15 14 12 11 11 11 11 11 11 10 10 11 10 10 9 10 9 9 9 9 10
7 8 8 8 7 7 6 6 6 5 5 6 5 3 2 3 3 2 1 1 1 0 1 2 4 4 4 4 5 4 4 5 6 7 8 9 9 9 9 9 9 9 9 10 11 12 13 13 12 11 11 10 10 10 8 7 8 10 9 10 11 11 12 13 13 14 15 15 14 11 11 11 11 14 18 17 16 14 10 10 10 9 8 9 9
9 8 8 7 7 6 6 5 5 4 2 2 2 1 1 2 3 3 4 3 3 4 4 4 4 4 4 4 5 4 5 5 7 8 8 8 8 9 10 10 11 11 11 11 12 12 11 12 13 13 12 11 11 9 10 18 18 13 12 11 10 11 11 12 13 14 15 15 15 15 14 18 18 19 19 20 20 21 21 16 13 11 10 10 10
8 7 7 6 5 4 4 4 3 1 2 1 1 2 3 4 3 4 4 3 3 4 4 4 5 4 5 6 6 7 7 9 8 8 7 8 10 9 9 10 11 11 12 12 12 13 12 11 12 13 14 13 12 11 22 23 24 26 18 13 12 12 12 13 13 14 14 15 14 13 13 15 16 16 15 18 20 22 21 23 25 23 18 13 11
8 7 5 4 5 5 5 5 4 3 4 4 4 4 4 3 3 3 3 3 4 4 5 4 4 5 5 7 7 7 8 8 8 8 9 9 9 10 10 11 11 12 12 11 12 12 13 13 12 13 13 13 13 18 26 26 26 26 24 17 13 13 12 13 13 13 12 12 11 12 11 11 11 14 15 15 16 19 22 22 24 24 24 24 22
6 5 5 5 6 6 6 5 5 6 5 4 5 4 4 3 3 1 2 4 4 4 4 4 5 6 6 5 6 6 6 6 7 7 8 9 10 11 11 11 12 11 11 12 13 14 14 13 13 13 14 13 12 20 26 27 27 27 27 23 13 14 13 13 13 13 13 12 12 13 12 11 10 21 17 14 14 15 16 20 20 23 25 25 25
6 8 8 7 5 4 5 7 7 5 5 4 3 5 4 3 2 2 4 4 4 5 4 4 3 3 4 5 6 5 6 6 6 7 8 9 9 10 10 9 10 11 11 12 12 13 13 12 12 12 13 13 13 19 26 27 27 28 27 24 14 14 13 13 14 12 12 13 13 11 13 13 12 11 13 15 16 16 16 16 14 14 14 16 19
8 8 7 8 8 6 6 5 5 6 5 5 4 3 3 3 3 4 3 3 2 3 3 3 3 4 5 4 6 5 6 7 7 8 8 9 9 10 10 9 9 10 11 12 12 13 12 11 11 12 13 15 13 24 26 28 27 27 27 24 14 15 13 13 12 12 12 12 13 13 13 14 13 14 12 18 17 17 16 15 15 16 15 15 15
9 10 9 9 9 11 10 8 5 6 4 4 4 3 3 2 2 3 2 2 2 2 3 2 3 4 4 5 4 5 6 6 8 8 8 10 9 9 10 10 10 10 9 9 11 9 11 12 11 11 13 14 14 24 25 26 26 25 28 17 14 15 15 16 17 18 18 16 14 13 12 13 14 13 20 29 26 21 19 21 21 19 16 15 16
9 9 10 9 9 8 8 7 6 5 5 4 3 3 3 2 2 2 2 1 1 1 1 2 2 3 3 4 5 5 6 6 7 8 9 9 10 11 9 8 10 10 10 10 9 10 9 11 12 11 13 14 12 18 24 26 26 27 22 13 13 12 13 13 16 17 16 16 15 12 12 13 16 17 24 29 29 27 20 21 21 22 20 18 17
7 4 4 5 5 6 6 8 8 6 4 4 3 3 3 2 1 1 1 1 1 0 1 2 2 2 3 4 4 4 6 7 7 8 9 9 9 9 9 8 9 11 10 9 9 10 9 9 12 13 11 13 12 17 25 26 26 26 23 16 13 13 14 13 15 15 14 15 17 24 22 18 18 17 22 25 26 22 18 18 18 19 19 20 19
9 11 9 8 7 8 8 7 7 7 4 3 3 3 3 1 0 0 0 0 0 0 1 1 3 3 3 4 4 4 5 7 8 9 8 10 9 9 9 8 9 8 10 8 10 10 10 9 10 12 18 18 14 16 24 25 26 25 20 13 13 12 14 15 14 15 13 14 15 17 25 24 22 25 32 30 31 25 18 18 18 19 21 21 18
4 3 7 8 8 9 6 7 6 6 4 4 3 3 1 2 1 1 0 1 1 0 1 2 3 4 4 3 4 5 6 7 9 9 8 9 8 9 9 9 9 8 9 8 9 9 11 11 11 12 12 12 14 12 16 26 24 25 25 17 12 12 13 15 14 12 13 10 12 13 16 21 25 26 27 28 27 27 19 16 16 16 19 24 19
8 8 7 8 7 8 9 7 6 6 5 3 3 3 2 2 2 2 2 2 1 0 2 3 3 4 4 4 4 5 8 8 7 9 9 8 8 9 9 9 9 8 8 10 11 11 11 11 10 10 11 11 11 13 14 24 24 25 26 23 12 13 12 13 12 14 12 14 13 13 13 19 26 28 30 32 31 30 28 20 17 17 18 21 22
3 7 8 7 6 5 6 5 4 6 5 4 3 3 2 3 2 2 3 2 1 2 2 3 4 4 4 5 6 6 6 7 7 8 9 10 8 8 8 9 8 8 10 11 11 10 10 11 10 10 10 11 12 19 15 20 24 25 26 28 17 13 15 14 14 12 11 12 11 13 11 20 31 31 32 31 32 30 30 21 21 32 34 34 26
7 5 5 9 8 8 7 7 5 5 4 3 3 2 2 1 2 3 2 1 2 2 3 3 4 5 5 6 6 7 8 6 7 8 9 11 9 8 8 8 9 10 10 11 11 10 10 11 10 9 9 10 11 12 20 18 23 26 28 28 29 23 27 19 14 14 12 13 11 11 13 25 30 31 31 32 31 33 27 22 32 34 35 37 30
7 9 10 7 8 6 6 5 5 4 3 3 3 2 2 2 4 2 1 1 1 2 2 4 4 5 6 6 6 7 7 7 8 8 8 10 10 8 8 8 8 8 9 10 10 9 10 10 11 11 10 10 10 10 15 22 22 27 27 28 29 30 30 19 15 12 10 11 13 13 16 27 31 31 32 32 32 31 24 32 33 34 34 33 21
13 11 9 7 10 9 7 5 5 4 3 3 3 3 2 3 2 2 1 2 2 2 3 4 5 5 6 6 6 6 7 7 7 7 8 9 9 7 9 8 7 8 9 10 10 9 9 10 10 11 11 10 10 10 10 15 23 25 28 29 30 31 30 30 20 14 14 14 21 33 34 33 31 32 33 32 26 26 29 29 32 32 30 16 15
5 5 8 7 6 6 6 6 4 4 4 4 3 4 3 3 1 1 2 2 2 2 4 5 5 5 6 6 7 7 6 7 7 6 7 8 8 8 8 9 8 9 9 10 11 10 10 10 10 11 11 11 11 10 10 10 12 17 19 26 31 31 31 31 30 23 29 34 35 34 36 35 31 26 19 14 12 14 23 28 31 30 17 13 14
13 11 10 8 7 7 7 6 6 5 5 4 3 3 4 3 3 3 2 2 2 3 4 5 6 6 5 5 6 6 6 6 5 6 7 7 7 6 7 9 9 9 9 10 11 11 11 10 11 11 11 11 11 10 10 10 10 11 11 14 16 17 25 28 20 16 20 19 23 24 20 25 25 33 33 30 27 26 20 18 14 12 12 13 13
7 9 9 7 8 9 7 7 7 6 5 4 3 4 3 3 3 3 3 2 3 4 5 5 6 6 5 5 6 7 7 7 7 7 8 8 7 5 6 9 10 10 11 11 11 11 11 10 10 10 11 10 10 10 10 11 12 12 12 12 12 12 12 12 12 13 15 17 15 18 23 18 16 15 15 13 12 13 14 13 11 11 12 14 17
10 10 10 11 8 7 7 7 6 5 5 4 4 3 3 3 3 3 2 2 4 4 4 5 6 5 5 4 5 6 6 7 8 7 7 8 9 8 8 10 11 9 10 10 9 10 11 10 10 11 10 9 11 11 11 17 19 24 21 16 12 11 10 8 14 22 17 12 12 13 13 13 12 12 12 13 12 11 11 12 14 13 12 12 12
7 7 7 6 7 7 7 6 4 4 4 4 3 3 3 3 3 3 3 3 4 4 4 5 5 5 5 5 5 5 5 6 7 8 9 10 11 17 12 10 11 18 24 25 22 15 14 13 12 10 9 11 11 13 26 32 30 30 31 32 29 29 28 22 24 32 22 11 9 9 9 10 11 10 12 12 13 13 12 12 12 16 14 11 10
8 9 6 7 6 5 5 4 4 4 4 3 3 3 3 4 4 4 4 4 4 3 4 5 4 4 5 5 6 6 6 6 6 7 7 8 12 15 18 18 18 20 21 24 24 26 27 25 18 13 14 25 28 30 30 29 31 29 30 30 31 31 31 31 31 20 12 9 9 10 10 10 11 11 12 12 13 12 12 11 10 11 10 11 13
Wind_Direction
6 18 21 21 24 24 26 29 28 34 29 27 32 27 24 19 22 24 9 21 35 39 39 40 35 26 37 41 44 28 34 38 38 21 29 27 29 31 32 38 46 48 36 22 9 4 351 127 149 152 154 174 178 192 191 194 195 191 178 167 175 186 227 148 160 131 130 219 352 330 310 306 295 307 266 253 242 235 232 210 229 205 211 193 206
26 29 23 25 26 27 31 31 28 35 22 31 35 32 28 25 27 17 13 17 20 17 33 51 39 81 99 70 84 47 37 39 36 27 26 30 29 25 24 28 38 39 31 48 50 46 36 19 355 342 207 203 202 187 171 171 150 161 146 171 198 184 211 178 175 125 219 195 197 289 312 301 285 306 277 255 241 247 228 221 217 211 209 209 199
34 35 30 29 25 27 35 34 31 28 29 36 34 37 32 30 24 20 16 15 13 12 22 25 23 36 59 47 51 77 73 70 75 52 36 40 35 28 23 18 19 27 31 33 37 38 55 62 40 40 15 1 340 248 169 183 187 184 179 188 199 224 205 166 178 197 182 127 112 64 284 290 308 274 262 250 246 235 230 227 221 218 217 206 196
41 31 30 27 29 29 31 35 28 24 26 30 28 34 36 33 29 25 19 14 11 7 15 12 42 52 55 59 53 68 50 22 27 24 16 20 22 22 31 21 23 21 15 20 29 32 35 50 66 72 65 103 236 294 278 254 197 189 190 211 176 192 209 223 192 202 147 136 259 212 228 151 300 259 239 247 203 223 223 229 222 223 222 216 198
43 39 36 34 36 32 29 28 33 37 31 31 29 31 37 36 35 38 33 21 13 8 9 16 31 33 30 40 42 38 31 30 28 16 12 11 11 5 359 8 15 27 21 21 25 24 30 30 35 34 59 147 166 250 241 230 224 230 215 210 199 208 221 220 216 204 216 218 172 96 342 276 228 251 348 277 227 220 235 232 226 225 221 215 210
50 45 39 38 43 36 35 32 30 30 32 25 30 37 40 37 36 40 43 36 22 13 10 25 37 43 42 42 38 37 39 28 26 12 7 16 3 358 10 12 7 1 10 13 21 20 19 32 35 29 1 342 223 234 252 267 244 224 212 214 222 232 234 211 235 222 225 233 231 208 148 182 224 270 89 278 324 239 258 240 233 231 226 220 226
36 46 38 43 31 38 37 38 28 28 19 14 28 34 40 43 39 40 42 42 32 23 16 24 39 44 56 63 61 54 54 34 28 26 25 10 22 21 11 15 15 15 6 9 3 5 2 7 23 33 9 351 318 276 272 253 246 231 223 208 221 223 219 239 225 228 227 251 253 254 258 197 156 122 246 340 313 317 250 236 248 253 247 243 237
50 47 46 44 41 35 38 28 28 24 6 21 34 32 36 36 41 41 41 40 37 31 29 24 38 37 45 50 50 47 47 33 20 17 25 24 29 20 16 13 13 20 17 13 12 9 4 358 355 359 6 3 352 289 270 284 293 281 236 238 247 235 218 227 236 215 214 227 214 242 250 235 178 164 169 216 257 287 303 299 274 246 245 243 240
45 57 49 45 44 38 33 36 19 23 24 29 31 34 38 39 43 44 42 37 31 34 38 31 36 41 47 46 51 41 40 33 24 32 31 20 32 19 20 10 13 15 19 15 12 10 8 2 356 353 349 350 -0 335 317 324 300 293 285 253 233 237 225 231 235 233 217 236 225 241 240 247 244 229 210 168 238 279 271 225 262 289 247 250 245
44 58 57 52 47 44 36 44 37 28 20 23 36 42 42 43 42 45 39 35 29 33 37 38 35 36 44 41 49 41 35 32 38 33 29 22 31 22 17 18 10 12 11 14 13 8 6 4 2 357 349 340 341 331 321 330 321 311 292 282 273 258 249 235 235 244 237 240 232 241 233 242 254 267 250 247 253 207 257 262 223 227 242 240 230
55 59 53 53 38 46 38 52 42 31 22 30 37 39 42 43 42 47 36 34 30 32 35 37 37 37 41 39 42 41 34 38 38 31 24 27 28 20 19 12 14 15 11 11 15 7 1 3 2 355 356 356 349 346 336 325 310 305 301 313 297 276 269 261 254 251 251 249 242 234 243 231 237 236 238 225 233 251 265 261 253 225 229 255 247
61 59 48 35 38 33 36 50 43 34 38 38 39 40 44 43 45 51 39 31 29 29 37 38 39 38 39 38 42 37 38 39 40 35 24 30 24 22 14 19 16 12 14 12 10 5 5 358 356 359 1 357 356 344 342 338 330 328 318 304 293 289 290 286 276 265 255 254 252 246 246 245 248 247 243 223 228 244 241 262 257 260 275 237 268
85 70 60 46 51 41 43 44 47 40 39 35 37 40 40 43 43 55 44 31 32 32 42 41 42 39 36 37 37 35 38 38 36 34 23 26 18 21 20 21 12 16 12 10 4 1 1 3 1 358 353 350 345 351 345 344 342 335 330 324 303 289 277 274 273 266 261 256 256 251 250 247 248 248 245 241 241 247 244 262 257 182 256 272 265
96 85 85 84 69 62 58 55 53 50 47 47 46 48 45 48 43 55 46 32 30 38 39 46 44 42 40 44 43 41 42 41 37 37 23 25 20 21 21 16 13 14 2 9 356 356 3 1 358 356 355 351 350 347 347 342 342 338 328 326 319 305 300 279 268 271 273 271 275 273 264 256 254 245 244 238 240 238 247 247 264 256 214 259 283
96 97 94 78 68 68 69 65 64 62 59 54 51 48 51 50 47 51 47 30 35 36 36 43 42 40 43 46 47 45 46 42 41 37 31 27 20 24 18 13 15 1 3 347 355 1 360 -0 0 359 355 353 351 350 347 344 342 338 333 320 316 309 307 297 280 273 276 274 268 257 263 263 262 255 249 248 237 236 242 246 240 265 269 245 259
109 100 83 70 74 72 71 68 68 68 71 70 64 60 59 51 50 51 53 38 36 40 41 46 42 46 48 50 49 52 49 48 40 33 28 30 21 25 13 12 6 359 356 357 355 358 357 355 355 355 351 351 351 347 345 344 339 338 330 333 325 319 319 311 295 285 275 271 269 274 273 265 259 255 248 249 247 241 239 245 235 247 259 273 253
118 106 105 104 90 78 89 93 84 72 64 62 61 56 58 49 43 41 35 42 43 43 50 44 45 55 45 52 48 50 51 53 49 31 27 18 29 16 16 348 346 353 344 347 346 349 352 354 349 347 348 346 343 345 340 339 337 333 331 329 325 322 324 309 304 296 280 276 275 267 262 270 269 262 253 252 253 254 247 243 231 238 244 256 266
144 135 130 132 129 102 83 73 72 75 69 57 55 51 62 72 66 52 38 32 20 30 32 38 31 39 38 41 46 61 58 48 49 29 14 30 7 7 353 359 347 321 329 326 335 334 334 342 338 334 337 339 339 336 338 334 336 332 320 315 307 315 315 309 302 294 289 283 276 279 269 268 266 268 259 246 248 248 250 241 239 240 233 246 257
155 158 145 122 104 95 77 73 42 46 52 73 58 63 55 45 43 55 38 31 25 24 24 25 29 25 24 24 29 24 21 18 9 4 354 6 3 2 2 342 330 331 335 333 333 330 327 327 329 322 324 323 325 329 333 333 333 329 328 321 318 324 321 312 302 301 294 295 287 283 279 273 267 265 265 258 247 247 249 246 247 236 239 242 253
178 166 163 158 152 150 144 140 125 123 126 145 138 98 84 73 60 43 35 30 27 24 24 27 12 27 15 24 21 27 26 17 7 6 356 352 344 345 345 349 346 339 337 333 335 334 332 329 326 320 314 314 312 308 314 316 321 321 319 322 317 322 316 309 305 301 295 291 288 285 280 276 277 273 271 266 260 243 239 247 243 241 246 239 245
182 179 177 182 188 194 204 194 189 233 304 246 202 162 184 177 141 116 99 42 35 15 31 16 17 14 27 15 7 13 9 7 3 359 349 333 330 331 335 332 337 337 336 333 333 331 327 328 327 328 327 323 322 317 314 308 305 299 303 305 311 316 315 308 304 303 297 292 288 285 284 277 275 274 271 269 269 258 247 244 242 243 248 240 233
188 190 183 186 194 174 179 203 226 279 257 224 219 176 165 181 175 168 125 117 97 22 35 6 20 34 33 353 333 311 330 354 1 342 340 330 329 325 317 333 329 316 328 320 321 323 320 316 312 307 307 305 306 307 311 313 308 305 298 290 293 301 304 305 308 304 304 297 286 285 287 287 277 272 275 274 268 270 258 252 245 234 244 246 218
189 182 183 183 181 185 194 205 224 214 224 212 194 169 169 172 178 179 141 194 189 210 217 149 59 31 329 315 326 330 342 338 352 336 333 326 321 318 318 322 312 310 309 305 305 310 313 316 317 315 316 315 311 307 305 306 305 305 303 302 297 292 291 291 295 292 294 298 298 289 283 281 283 281 276 267 267 266 262 259 258 236 244 246 231
187 179 175 186 185 190 191 214 203 192 189 187 180 182 196 186 190 171 181 207 211 223 208 151 258 304 303 338 328 314 338 322 337 317 313 308 311 309 311 310 300 298 297 291 289 290 292 293 294 297 303 306 309 308 306 300 295 298 300 301 305 303 294 288 285 287 287 287 284 290 287 279 274 278 279 278 267 259 261 262 262 256 245 250 237
187 186 193 186 180 187 197 188 179 190 192 182 189 195 198 213 208 198 220 213 217 207 188 215 195 229 284 268 285 283 281 299 304 301 290 290 289 290 292 293 299 301 300 301 298 282 281 279 279 283 286 288 293 299 302 304 302 294 287 292 296 298 297 294 289 284 282 281 279 273 276 279 272 273 276 275 272 268 263 260 261 261 254 252 247
187 195 175 186 190 188 183 186 189 191 188 196 206 204 212 222 224 217 212 225 228 197 204 194 202 202 249 250 268 293 319 328 322 318 314 307 304 300 298 291 283 287 291 288 287 297 294 296 296 293 289 287 284 282 284 288 294 303 308 305 299 292 290 289 290 290 287 280 275 274 274 272 270 266 270 271 268 266 265 263 263 263 258 255 254
189 186 190 177 180 194 194 193 193 198 199 202 199 211 215 215 235 236 226 216 218 194 208 203 207 216 275 340 347 341 331 332 334 328 325 324 321 318 313 311 307 294 296 299 294 289 291 286 288 289 287 287 288 286 286 287 291 293 296 298 302 304 301 296 287 285 283 281 276 274 273 269 265 262 266 266 265 265 262 260 259 263 260 258 256
176 178 182 189 196 200 203 210 213 218 213 218 221 214 206 205 219 235 243 245 302 217 236 227 72 26 21 354 348 340 343 340 337 335 333 332 329 326 323 319 321 317 313 311 310 309 304 300 293 291 287 284 281 281 280 279 280 283 286 286 287 289 292 296 299 296 290 280 275 272 271 269 263 261 262 267 264 263 261 263 259 256 257 256 256
180 194 195 195 202 205 213 218 223 225 224 227 233 264 326 335 356 26 88 39 274 164 63 45 30 19 0 344 339 339 339 339 332 333 335 332 329 326 325 324 322 317 313 312 310 309 308 306 303 298 297 293 288 286 287 288 289 287 280 279 281 281 284 287 288 291 294 295 290 281 272 268 263 262 261 262 262 258 260 266 261 255 251 253 255
193 201 204 208 209 212 216 219 225 229 272 337 338 336 2 40 34 35 50 18 54 50 43 21 20 2 349 344 339 336 338 339 339 339 334 329 328 327 325 323 319 316 314 311 308 306 303 302 304 305 302 301 297 295 295 301 303 302 299 296 292 290 289 287 287 289 288 288 289 289 287 280 276 274 271 267 263 263 261 256 259 259 253 252 249
205 209 215 217 223 225 233 238 240 203 201 185 140 92 97 82 66 54 42 11 41 32 29 26 5 2 351 348 347 346 348 348 344 336 332 332 328 326 322 318 315 313 312 310 309 309 307 307 308 308 307 304 302 302 306 308 308 307 306 302 299 294 290 286 283 282 282 285 286 288 289 291 290 286 281 274 269 263 257 261 262 259 252 246 253
211 220 226 228 219 214 213 210 192 171 144 134 122 108 84 74 58 42 18 20 36 35 27 17 8 354 356 355 351 347 349 343 342 335 333 331 328 324 321 317 314 314 313 313 312 311 312 316 313 310 306 304 304 307 310 311 309 307 305 303 299 294 289 285 283 279 278 280 283 285 285 287 286 285 285 283 276 270 265 261 260 263 263 256 247
203 190 188 182 178 182 173 157 152 153 144 149 140 112 95 96 64 19 36 39 39 34 17 14 5 1 353 354 351 350 341 337 334 334 329 329 324 319 318 317 314 315 317 315 315 316 312 314 313 310 308 306 306 312 312 309 307 306 304 303 296 290 285 283 281 278 278 278 280 282 282 276 276 284 286 284 284 283 275 270 263 264 263 260 257
184 179 177 186 175 164 162 160 160 153 133 127 116 114 121 115 105 58 56 29 29 16 20 359 2 351 359 357 352 346 335 330 331 328 325 319 318 312 312 313 313 317 316 312 312 312 312 313 314 313 308 308 309 316 313 309 308 307 305 303 295 291 285 282 282 279 280 280 277 277 279 278 277 280 282 285 286 285 285 283 278 271 264 260 257
180 186 183 178 173 165 158 159 158 145 139 124 98 109 110 72 54 55 51 44 28 16 7 359 3 2 8 354 350 339 330 326 324 322 318 313 311 311 312 315 314 312 313 312 313 314 311 312 311 312 309 306 310 313 311 309 308 306 304 303 297 297 293 288 283 278 275 273 274 273 274 277 279 278 275 280 284 285 285 282 276 271 266 263 260
193 182 190 178 178 173 172 167 146 127 123 113 117 118 111 116 96 89 64 38 32 14 353 9 17 10 358 346 340 328 322 320 317 316 314 311 311 309 310 311 307 303 298 299 299 301 303 305 305 305 302 301 306 311 308 307 307 307 307 305 302 298 294 291 290 289 288 287 286 285 287 286 285 284 282 281 281 282 282 283 281 278 272 265 261
199 187 187 190 180 169 157 135 133 130 126 129 134 133 124 109 77 59 61 28 39 0 347 35 17 350 335 331 323 317 312 311 310 309 307 306 308 307 303 304 299 297 297 299 296 298 300 299 300 300 299 298 300 306 306 306 306 305 306 299 293 286 284 286 287 288 287 284 280 277 271 273 274 274 278 279 278 277 274 271 270 271 272 271 266
191 189 169 162 155 131 133 136 133 125 124 125 123 107 95 72 62 29 52 16 37 282 69 28 334 311 314 309 310 307 304 304 302 299 299 298 297 293 292 296 293 298 297 294 297 297 293 294 295 295 293 294 297 302 304 304 303 303 301 297 295 290 284 284 287 287 289 289 289 291 291 290 288 285 288 287 285 282 280 281 282 278 273 265 261
181 170 167 167 156 145 140 130 130 131 134 120 112 100 93 102 152 229 80 0 250 121 48 321 296 299 295 297 296 297 296 297 295 292 293 293 293 291 291 291 286 287 288 294 295 294 293 291 287 286 294 297 295 298 300 301 301 301 300 293 291 286 287 288 289 291 290 291 292 294 292 291 289 288 288 286 283 279 273 271 272 275 276 275 271
195 186 163 150 137 126 133 143 148 148 138 130 114 109 131 178 202 166 184 218 186 133 282 290 286 288 287 286 290 290 287 287 289 289 287 284 286 290 289 290 288 287 291 293 290 288 290 290 289 289 288 290 291 291 293 297 300 300 300 298 289 288 288 288 283 280 286 275 276 277 280 285 288 290 292 293 292 287 279 267 263 262 263 265 266
178 172 145 146 157 157 161 163 151 141 138 137 132 138 182 186 178 170 211 193 161 250 277 277 285 285 283 285 284 279 283 280 278 285 286 285 284 285 291 289 291 293 289 292 291 290 288 287 286 284 283 285 284 288 289 295 298 300 299 299 289 283 283 282 282 280 276 283 286 286 291 292 293 292 291 290 288 286 285 283 274 263 258 267 271
132 147 147 143 144 136 130 131 141 144 149 150 142 159 186 177 170 206 210 158 189 244 266 276 280 282 283 284 278 275 272 277 282 282 286 285 281 280 283 287 289 294 295 292 291 290 287 284 283 282 282 283 283 286 286 289 293 296 297 296 294 283 283 282 281 273 275 277 279 283 282 285 285 285 285 285 283 281 279 277 274 275 272 268 265
149 157 176 153 154 164 167 162 158 156 154 152 131 162 181 184 199 227 177 190 222 247 267 272 281 282 280 278 275 275 279 279 281 280 283 287 288 288 285 287 294 297 292 291 290 288 287 286 286 283 281 278 277 275 283 286 290 293 294 295 293 292 290 289 284 282 280 277 273 267 266 277 280 280 281 280 280 280 280 276 275 276 276 276 271
185 174 168 162 159 163 160 163 161 158 151 148 148 171 185 198 239 199 195 210 239 259 267 279 279 279 280 277 275 276 274 277 278 283 280 283 290 292 292 294 297 294 294 292 288 286 286 285 288 289 280 276 271 271 275 282 287 288 291 291 290 290 291 287 281 277 277 273 277 273 270 274 278 277 276 278 280 281 280 280 280 277 274 273 273
181 180 170 166 167 169 162 168 171 161 166 175 173 155 187 217 221 162 238 240 254 260 277 278 278 277 275 273 274 275 278 276 276 277 283 288 291 298 301 300 298 294 290 288 287 284 280 281 283 282 282 278 273 267 266 270 279 286 289 289 288 286 286 287 286 281 276 276 276 278 280 282 283 287 290 291 292 290 288 284 280 280 279 275 269
138 141 167 163 146 149 159 173 189 175 184 179 188 163 188 223 204 220 242 243 258 275 279 275 275 274 273 278 285 282 275 272 274 271 272 280 285 296 297 298 297 288 288 287 287 283 277 278 278 278 282 281 277 273 270 267 266 272 274 278 280 280 279 280 278 278 279 280 281 283 286 290 292 289 286 282 272 271 271 272 276 276 272 271 274
184 181 152 147 152 159 176 177 192 199 187 200 190 200 203 232 243 243 241 247 260 267 272 278 279 278 278 279 284 289 290 283 281 282 278 278 280 278 287 291 290 289 285 282 281 281 281 279 279 280 279 282 280 276 275 272 271 271 265 264 267 267 266 268 271 270 269 269 270 271 271 272 275 281 282 282 282 281 281 278 274 268 263 264 265
176 155 161 154 167 176 180 180 197 197 187 194 204 213 224 226 238 240 241 242 259 261 269 276 280 280 282 282 283 284 290 296 291 290 293 293 280 273 278 283 289 287 287 283 281 282 282 279 279 282 284 283 285 285 286 290 286 277 274 270 257 250 250 242 251 256 250 252 254 260 265 264 269 271 274 268 265 262 260 262 259 263 264 261 263
164 175 168 177 175 177 182 180 194 178 180 193 216 228 226 228 239 237 227 236 256 264 270 277 276 279 282 284 283 288 290 291 295 288 277 276 286 287 276 273 267 256 261 265 265 273 273 279 279 287 291 286 292 292 287 296 296 299 301 299 292 285 267 245 232 238 246 246 243 255 255 263 258 259 257 257 254 249 250 256 262 258 256 258 263
175 154 167 165 169 169 173 182 188 173 180 193 227 236 233 232 240 243 226 228 252 264 271 274 273 279 288 291 290 289 288 289 288 295 298 295 279 290 289 290 288 290 291 291 295 296 298 298 297 287 289 296 297 296 303 307 305 305 305 305 306 304 304 303 301 301 304 296 285 269 270 272 275 273 271 270 267 263 260 258 257 263 262 260 263
165 155 168 173 173 166 159 169 182 173 180 196 228 245 250 252 237 239 223 232 241 254 265 274 284 291 294 299 296 294 290 288 287 292 295 301 311 310 304 298 295 296 298 300 302 301 303 306 308 307 305 305 305 307 309 309 310 312 312 312 310 309 309 309 307 304 303 294 290 289 288 283 279 281 280 275 273 269 261 256 254 256 257 262 267